Location: Burla
(50.9568°N, 10.4983°E)
Time: 22:11:26
(UTC+00:00)

Cosmos 1470 Rocket - Pass Details

Date: 18 January 2026
Orbit: 598 x 625 km, 82.5° (Epoch: 18 February)

Event Time Altitude Azimuth Distance (km) Brightness Sun altitude
Rises 05:50:47 0° 187° (S) 2,839 7.1 -12.4°
Reaches altitude 10° 05:52:59 10° 187° (S) 1,938 6.2 -12.1°
Maximum altitude 05:57:16 86° 100° (E) 608 3.5 -11.4°
Drops below altitude 10° 06:01:35 10° 11° (N) 1,950 6.0 -10.8°
Sets 06:03:48 0° 11° (N) 2,858 6.9 -10.5°
